Location: Unspecified
(49.3432°N, 0.0000°E)
Time: 06:27:26
(UTC+00:00)

A-11 Canister half - Visible Passes

Search period start: 04 April 2026 00:00
Search period end: 14 April 2026 00:00
Orbit: 1513 x 1686 km, 47.2° (Epoch: 28 March)

Date Brightness Start Highest point End Pass type
(mag) Time Alt. Az. Time Alt. Az. Time Alt. Az.
11 Apr 11.0 04:44:10 10° SSE 04:49:26 17° SE 04:54:47 10° E visible
12 Apr 11.0 04:21:46 10° SSE 04:26:32 15° SE 04:31:23 10° E visible
13 Apr 11.0 03:59:27 10° SSE 04:03:39 14° SE 04:07:53 10° E visible
